Regional Weather Roundup
Issued by NWS San Diego, CA

Home | Current Version | Previous Version | Text Only | Print | Product List | Glossary On
Versions: 1 2 3 4 5 6 7 8 9 10 11 12 13 14 15 16 17 18 19 20 21 22 23 24 25 26 27 28 29 30 31 32 33 34 35 36 37 38 39 40 41 42 43 44 45 46 47 48 49 50
000
ASUS46 KSGX 221810
RWRSGX

SAN DIEGO HOURLY WEATHER ROUNDUP
NATIONAL WEATHER SERVICE SAN DIEGO CA
1000 AM PST MON DEC 22 2014

NOTE: "FAIR" INDICATES FEW OR NO CLOUDS BELOW 12,000 FEET WITH NO
SIGNIFICANT WEATHER AND/OR OBSTRUCTIONS TO VISIBILITY.

CAZ042-043-060-061-PZZ750-775-221900-

GREATER SAN DIEGO AREA

CITY           SKY/WX    TMP DP  RH WIND       PRES   REMARKS
LINDBERGH FLD  SUNNY     66  51  58 NW5       30.06S
POINT LOMA       N/A     66  49  54 N2          N/A
NATIONAL CITY    N/A     66  54  65 N1        30.05S
CHULA VISTA      N/A     67  55  67 E2        29.99R
IMPERIAL BEACH MOSUNNY   66  51  58 N6        30.05R
BROWN FIELD    SUNNY     67  48  50 CALM      30.04R
MIRAMAR MCAS   SUNNY     67  49  52 NW3       30.05R
MONTGOMERY FLD SUNNY     67  53  61 NW5       30.06R

$$

NORTH SAN DIEGO COUNTY

CITY           SKY/WX    TMP DP  RH WIND       PRES   REMARKS
CAMP PENDLETON SUNNY     60  51  72 CALM      30.06S
OCEANSIDE AP   SUNNY     62  50  64 CALM      30.05S
OCEANSIDE HBR    N/A     63  58  84 W3        30.08S
CARLSBAD       SUNNY     65  52  62 CALM      30.04S
DEL MAR          N/A     61  56  82 CALM      30.08R
LA JOLLA SCRIP   N/A     61  58  90 CALM      30.04R
FALLBROOK        N/A     67  56  69 CALM      30.06S
ESCONDIDO        N/A     66  52  60 CALM      30.07F
SAN MARCOS       N/A     65  53  66 CALM      30.05R
POWAY            N/A     62  55  79 CALM      30.09R

$$

EAST SAN DIEGO COUNTY

CITY           SKY/WX    TMP DP  RH WIND       PRES   REMARKS
RAMONA         SUNNY     65  50  58 CALM      30.06S
SANTEE LAKES     N/A     61  54  76 CALM      30.07S
JAMUL            N/A     67  52  59 CALM      30.06R
DESCANSO N       N/A     68  41  38 E3        30.00S
MT. LAGUNA OBS   N/A     66  17  15 CALM      29.78R
CAMPO            N/A     68  41  37 W3        30.06S

$$

ORANGE COUNTY AND THE LOS ANGELES BASIN

CITY           SKY/WX    TMP DP  RH WIND       PRES   REMARKS
JOHN WAYNE AP  MOSUNNY   65  54  67 CALM      30.06R HAZE
LAGUNA BEACH     N/A     60  59  98 CALM      30.02R
LAKE FOREST FR   N/A     64  49  59 CALM      29.97R
SANTA ANA        N/A     64  59  82 CALM      30.01S
HUNTINGTON BCH   N/A     63  59  88 CALM      30.08R
FULLERTON      SUNNY     64  51  62 CALM      30.05S
LONG BEACH     SUNNY     63  53  70 CALM      30.06S HAZE
L.A. AP        MOSUNNY   62  51  67 SE3       30.06S
L.A. DOWNTOWN  SUNNY     65  51  60 CALM      30.05S

$$

THE INLAND EMPIRE

CITY           SKY/WX    TMP DP  RH WIND       PRES   REMARKS
CORONA         SUNNY     59  55  86 CALM      30.07S
CHINO          SUNNY     59  50  72 NW3       30.07F HAZE
ONTARIO        SUNNY     61  48  62 SW5       30.06S
SAN BERNARDINO SUNNY     61  45  55 CALM      30.07S
RIVERSIDE AP   SUNNY     62  48  60 CALM      30.06S
RIV CYN CREST    N/A     65  56  71 S3          N/A
MORENO VALLEY    N/A     64  54  69 CALM      29.27S
HORSETHIEF CYN   N/A     66  45  46 SE2       30.07S
PERRIS           N/A     58  53  84 SE2       30.12R
MENIFEE          N/A     58  52  83 SE1       30.14F
HEMET EAST       N/A     61  40  45 CALM      30.09S
FRENCH VALLEY  FAIR      59  46  63 CALM      30.08S
TEMECULA         N/A     54  50  87 CALM      30.04F

$$

SAN BERNARDINO AND RIVERSIDE COUNTY MOUNTAINS

CITY           SKY/WX    TMP DP  RH WIND       PRES   REMARKS
BIG BEAR AP    SUNNY     57  10  15 N5G16     30.30S
ANGELUS OAKS     N/A     59  27  29 CALM      30.03F
PINE COVE        N/A     65  30  26 CALM      30.05S

$$

SOUTHERN DESERT INCLUDING THE COACHELLA VALLEY

CITY           SKY/WX    TMP DP  RH WIND       PRES   REMARKS
PALM SPRINGS   SUNNY     65  45  48 S3        30.05S
THERMAL        SUNNY     62  45  53 SE5       30.03R
BLYTHE         SUNNY     57  46  66 E3        30.06S
IMPERIAL AP    SUNNY     60  47  61 CALM      30.03F
EL CENTRO NAS  SUNNY     62  48  60 CALM      30.03F
YUMA AZ        SUNNY     67  43  41 NE3       30.04S
MEXICALI       SUNNY     63  46  55 W2        29.87

$$

UPPER DESERT

CITY           SKY/WX    TMP DP  RH WIND       PRES   REMARKS
VICTORVILLE AP SUNNY     54  45  71 W3        30.18S
HESPERIA         N/A     58  46  66 CALM      30.31F
APPLE VALLEY     N/A     56  47  71 CALM      30.20F
PALMDALE       SUNNY     58  46  64 NW8       30.18F
LANCASTER      SUNNY     60  47  61 W13       30.17F
DAGGETT        SUNNY     57  45  64 W14       30.16R
29 PALMS N     SUNNY     63  42  46 NW16      30.17F
NEEDLES        SUNNY     61  41  47 NE5       30.06S

$$

REGIONAL REPORTS

CITY           SKY/WX    TMP DP  RH WIND       PRES   REMARKS
SANTA BARBARA  SUNNY     70  56  61 NW3       30.06R
SANDBERG       SUNNY     60  32  34 N14G33    30.22F
MT. WILSON       N/A     70  19  14 MISG        N/A
LAS VEGAS NV   SUNNY     57  41  55 SE6       30.04S
PHOENIX AZ     SUNNY     58  42  55 E3        30.03F
TIJUANA        SUNNY     64  43  45 E3        30.07R
ENSENADA NW      N/A     66  32  28 SE2       30.01F

$$

OFFSHORE ISLANDS

CITY           SKY/WX    TMP DP  RH WIND       PRES   REMARKS
CATALINA ARPT  SUNNY     64  46  52 NW7       30.09R
SAN NICOLAS IS SUNNY     65  55  70 W6        30.06S

$$

MARINE AND OFFSHORE BUOY REPORTS

STATION/POSITION SKY/WX   TEMP    WIND        PRES    SWELL
                          AIR SEA DIR/SP/G            HT/PER/DIR
                          (F)     (DEG/KT/KT) (MB)    (FT/S/D)
TANNER BANKS               64 64  330/ 10/ 14 1017.7R  11/310/15
S CLEMENTE BASIN           64 65  350/  4/  4 1017.6R   7/260/15
SAN NICOLAS IS.               62                N/A     8/310/13
SO. S. ROSA ISLA           63 61  350/ 17/ 21 1017.4R   8/14
W. S. BARBARA CH           65 62  330/ 19/ 25 1018.3R  10/300/14
S. MONICA BASIN            63 63   CALM  /  2 1018.1R   5/290/15
S PEDRO CHANNEL               64                N/A     3/260/14
DANA POINT                    64                N/A     3/240/15
CMP PENDLETON NS              64                N/A     2/250/14
OCEANSIDE OFFSHR              65                N/A     3/260/14
TORREY PINES OTR              65                N/A     3/270/14
LA JOLLA 1                 65 63  330/  1/  2 1018.0F
MISSION BAY BUOY              64                N/A     3/240/15
SAN DIEGO BAY                 64              1018.2F
POINT LOMA SOUTH              65                N/A     5/270/14

$$



USA.gov is the U.S. government's official web portal to all federal, state and local government web resources and services.